Location: G�ppingen
(48.7000°N, 9.6670°E)
Time: 20:27:56
(UTC+02:00)

Envisat - Visible Passes

Search period start: 15 October 2019 00:00
Search period end: 25 October 2019 00:00
Orbit: 764 x 766 km, 98.1° (Epoch: 15 October)

Date Brightness Start Highest point End Pass type
(mag) Time Alt. Az. Time Alt. Az. Time Alt. Az.
15 Oct 3.0 19:17:43 10° SSE 19:22:48 90° W 19:27:56 10° NNW visible
15 Oct 6.1 21:00:08 10° WSW 21:02:34 13° W 21:05:01 10° WNW visible
16 Oct 5.2 20:21:04 10° SSW 20:25:21 27° W 20:29:41 10° NW visible
17 Oct 6.6 06:48:26 10° ENE 06:50:06 11° E 06:51:45 10° ESE visible
17 Oct 3.8 19:43:23 10° S 19:48:21 55° W 19:53:22 10° NNW visible
18 Oct 3.0 19:06:30 10° SSE 19:11:33 74° ENE 19:16:38 10° N visible
18 Oct 5.9 20:47:57 10° SW 20:51:09 17° W 20:54:22 10° NW visible
19 Oct 6.0 07:12:19 10° NE 07:15:58 19° E 07:19:35 10° SE visible
19 Oct 4.8 20:09:26 10° SSW 20:14:00 33° W 20:18:36 10° NNW visible
20 Oct 3.4 19:32:00 10° S 19:37:03 68° WSW 19:42:09 10° NNW visible
21 Oct 3.0 18:55:20 10° SSE 19:00:19 60° ENE 19:05:20 10° N visible
21 Oct 5.6 20:36:00 10° SW 20:39:45 21° W 20:43:31 10° NW visible
22 Oct 6.2 07:01:31 10° NE 07:04:33 16° E 07:07:35 10° SE visible
22 Oct 4.4 19:57:53 10° SSW 20:02:39 41° W 20:07:29 10° NNW visible
23 Oct 3.1 19:20:42 10° SSE 19:25:47 84° WSW 19:30:55 10° NNW visible
23 Oct 6.1 21:03:35 10° WSW 21:05:36 12° W 21:07:38 10° WNW visible
24 Oct 3.2 18:44:13 10° SE 18:49:06 49° ENE 18:54:00 10° N visible
24 Oct 5.3 20:24:13 10° SSW 20:28:22 25° W 20:32:34 10° NW visible
